[[{"header":{"parameterUnit":"m.s-1","parameterCategory":1,"la1":30.2991,"la2":30.254,"lo1":-89.0895,"lo2":-89.0444,"dy":0.0017,"dx":0.0017,"nx":28,"ny":28,"refTime":"2023-11-12T09:00:00:Z","depth":0,"parameterNumber":2,"parameterNumberName":"U-component_of_WINDS"},"data":[0,0,0,0,0,0,0,0,0,0,0,0,0,0,0,0,0,0,0,0,0,0,0,0,0,0,0,0,0,0,0,0,0,0,0,0,0,0,0,0,0,0,0,0,0,0,0,0,0,0,0,0,0,0,0,0,0,0,-1.7975,-1.7975,0,-1.7941,-1.794,-1.794,-1.7858,-1.7856,-1.7854,-1.7853,-1.7821,-1.7821,-1.7822,0,0,0,0,0,0,0,0,0,0,0,0,0,-1.7973,-1.7974,-1.7975,-1.7975,-1.7974,-1.7941,-1.794,-1.794,-1.7858,-1.7856,-1.7854,-1.7852,-1.782,-1.7821,-1.7822,0,0,0,0,0,0,0,0,0,0,0,0,0,-1.796,-1.7974,-1.7975,-1.7929,-1.7925,-1.7941,-1.794,-1.794,-1.7859,-1.7856,-1.7853,-1.7851,-1.782,-1.7821,-1.7822,-1.7881,0,0,-1.7826,-1.7826,0,0,0,0,0,0,0,0,-1.7961,-1.796,-1.7937,-1.7933,-1.7928,-1.7901,-1.7928,-1.792,-1.7859,-1.7884,-1.7853,-1.785,-1.785,-1.7848,-1.7847,-1.7879,-1.7878,-1.7826,-1.7826,-1.7827,-1.7827,0,0,0,0,0,0,0,-1.7962,-1.7961,-1.7962,-1.7936,-1.7931,-1.7912,-1.7907,-1.7926,-1.7882,-1.7882,-1.7875,-1.7872,-1.7847,-1.7847,-1.7846,-1.7877,-1.7826,-1.7827,-1.7827,-1.7828,-1.7957,-1.7959,0,0,0,0,0,0,-1.7969,-1.7963,-1.7963,-1.7961,-1.7938,-1.7914,-1.7908,-1.7912,-1.7881,-1.7874,-1.7875,-1.7869,-1.7846,-1.7845,-1.7845,-1.7912,-1.7827,-1.7828,-1.7829,-1.7954,-1.7957,-1.796,0,0,0,0,0,0,-1.797,-1.797,-1.7964,-1.796,-1.7958,-1.7916,-1.7921,-1.7913,-1.7913,-1.7876,-1.7868,-1.7882,-1.7844,-1.7843,-1.7872,-1.791,-1.7828,-1.7829,-1.7951,-1.7955,-1.7959,-1.8047,0,0,0,0,0,0,-1.797,-1.7971,-1.7992,-1.7961,-1.7958,-1.7992,-1.7924,-1.7914,-1.7914,-1.7906,-1.7881,-1.7875,-1.7842,-1.7871,-1.7874,-1.791,-1.783,-1.7947,-1.7953,-1.7957,-1.8041,-1.8054,-1.8065,0,0,0,0,0,-1.797,-1.8019,-1.7993,-1.7994,-1.7984,-1.7994,-1.7993,-1.7953,-1.7918,-1.7939,-1.7916,-1.7875,-1.7905,-1.7875,-1.7877,-1.7914,-1.7945,-1.7951,-1.7957,-1.8035,-1.8051,-1.8064,0,0,0,0,0,0,-1.8056,-1.8014,-1.7985,-1.8025,-1.8014,-1.798,-1.8006,-1.7971,-1.797,-1.7963,-1.7914,-1.791,-1.7946,-1.7932,-1.79,-1.7969,-1.7918,-1.7925,-1.7977,-1.7992,-1.8004,-1.8007,-1.7831,0,0,0,0,0,-1.8079,-1.809,-1.8053,-1.8092,-1.8087,-1.8048,-1.8051,-1.8021,-1.8008,-1.8003,-1.7982,-1.7972,-1.7978,-1.7984,-1.7988,-1.8038,-1.8032,-1.8064,-1.8076,-1.8087,-1.8094,-1.812,-1.8134,-1.7981,-1.798,-1.798,0,0,-1.8128,-1.8106,-1.8116,-1.8109,-1.8096,-1.811,-1.8045,-1.8062,-1.8072,-1.8006,-1.8033,-1.8017,-1.8002,-1.8042,-1.8058,-1.8032,-1.8134,-1.8094,-1.8103,-1.8104,-1.8128,-1.8142,-1.8155,-1.7985,-1.7984,-1.7983,0,0,-1.8224,-1.8208,-1.8239,-1.8228,-1.821,-1.8183,-1.8191,-1.8163,-1.8149,-1.8175,-1.8126,-1.8138,-1.815,-1.8142,-1.814,-1.8233,-1.8196,-1.8235,-1.8299,-1.8325,-1.8337,-1.8348,-1.8382,-1.8395,-1.8242,-1.8242,-1.8243,0,-1.8287,-1.8305,-1.826,-1.828,-1.8278,-1.8218,-1.825,-1.8242,-1.8227,-1.8228,-1.8198,-1.8213,-1.8198,-1.8236,-1.8259,-1.8258,-1.8267,-1.8239,-1.8339,-1.8349,-1.8358,-1.8391,-1.8404,-1.8247,-1.8247,-1.8246,-1.8246,0,-1.8384,-1.8397,-1.8424,-1.841,-1.8412,-1.8438,-1.8398,-1.8405,-1.8375,-1.8352,-1.8379,-1.836,-1.836,-1.8366,-1.8337,-1.84,-1.8384,-1.8348,-1.8295,-1.8379,-1.8408,-1.842,-1.8255,-1.8253,-1.8251,-1.825,0,0,-1.8534,-1.8494,-1.8505,-1.8498,-1.8474,-1.8484,-1.8507,-1.8506,-1.8514,-1.8505,-1.8525,-1.8537,-1.8503,-1.85,-1.847,-1.8492,-1.8569,-1.8453,-1.8452,-1.8476,-1.8638,-1.8667,-1.8682,-1.8544,-1.8546,-1.8548,-1.864,0,-1.8625,-1.8662,-1.8623,-1.8668,-1.8681,-1.8624,-1.8644,-1.8633,-1.8612,-1.862,-1.8597,-1.8607,-1.856,-1.8558,-1.8578,-1.8556,-1.8601,-1.8548,-1.8563,-1.8564,-1.857,-1.8697,-1.8728,-1.8816,-1.8651,-1.8653,-1.8654,0,-1.8737,-1.8733,-1.878,-1.8753,-1.8756,-1.8776,-1.8771,-1.8779,-1.8765,-1.8748,-1.8745,-1.8708,-1.8731,-1.8679,-1.871,-1.8675,-1.8679,-1.8669,-1.8671,-1.8672,-1.8616,-1.8703,-1.8843,-1.8857,-1.8672,-1.8671,-1.8669,0,-1.8843,-1.8849,-1.8878,-1.8874,-1.8843,-1.8858,-1.8846,-1.8829,-1.8831,-1.8827,-1.8829,-1.8828,-1.8829,-1.883,-1.8795,-1.876,-1.8831,-1.8776,-1.8819,-1.882,-1.8837,-1.8837,-1.8981,-1.8838,-1.8838,-1.8837,-1.8837,0,-1.895,-1.8982,-1.8926,-1.8944,-1.8978,-1.8932,-1.8967,-1.8949,-1.8934,-1.8949,-1.89,-1.8915,-1.8866,-1.8876,-1.8849,-1.888,-1.888,-1.8868,-1.8861,-1.8873,-1.8875,-1.8876,-1.887,-1.8841,-1.884,-1.8839,-1.8839,0,-1.9075,-1.9039,-1.9067,-1.9035,-1.9028,-1.9054,-1.9027,-1.9043,-1.9019,-1.9038,-1.904,-1.9002,-1.9012,-1.8976,-1.898,-1.8961,-1.9007,-1.8989,-1.9012,-1.9007,-1.9052,-1.9049,-1.9203,-1.9222,-1.9066,-1.9067,-1.9068,0,-1.9146,-1.9169,-1.9139,-1.9145,-1.9135,-1.9145,-1.9146,-1.9102,-1.9106,-1.9091,-1.911,-1.9115,-1.9117,-1.9135,-1.9108,-1.9111,-1.9094,-1.9147,-1.9094,-1.9106,-1.9096,-1.9096,-1.9098,-1.9159,-1.9161,-1.9163,-1.9164,0,-1.9277,-1.9258,-1.9262,-1.9259,-1.9262,-1.9258,-1.9251,-1.9259,-1.9211,-1.9219,-1.9227,-1.9229,-1.9232,-1.9238,-1.9236,-1.9224,-1.9187,-1.9181,-1.9191,-1.9205,-1.9218,-1.9213,-1.9044,-1.9178,-1.9176,-1.9175,-1.9174,-1.9174,-1.9378,-1.9396,-1.9378,-1.9384,-1.9373,-1.9368,-1.9382,-1.9359,-1.9365,-1.9363,-1.9337,-1.9351,-1.9337,-1.9329,-1.9321,-1.9333,-1.9308,-1.9322,-1.9326,-1.9331,-1.934,-1.9215,-1.9332,-1.9331,-1.9331,-1.9331,-1.933,0,-1.9508,-1.9493,-1.9499,-1.949,-1.9495,-1.9457,-1.9448,-1.9455,-1.9468,-1.9457,-1.9459,-1.947,-1.9476,-1.945,-1.9452,-1.9466,-1.9449,-1.9469,-1.9468,-1.9466,-1.9361,-1.9352,-1.9482,-1.9482,-1.9482,-1.9482,-1.9482,-1.9482,-1.9576,-1.9604,-1.9583,-1.9606,-1.9591,-1.9604,-1.9602,-1.9597,-1.9588,-1.9602,-1.9606,-1.9588,-1.9572,-1.9573,-1.9577,-1.9569,-1.9573,-1.9599,-1.9586,-1.9488,-1.9473,-1.9459,-1.9451,-1.96,-1.96,-1.969,-1.9691,-1.9691]},{"header":{"parameterUnit":"m.s-1","parameterCategory":1,"la1":30.2991,"la2":30.254,"lo1":-89.0895,"lo2":-89.0444,"dy":0.0017,"dx":0.0017,"nx":28,"ny":28,"refTime":"2023-11-12T09:00:00:Z","depth":0,"parameterNumber":3,"parameterNumberName":"V-component_of_WINDS"},"data":[0,0,0,0,0,0,0,0,0,0,0,0,0,0,0,0,0,0,0,0,0,0,0,0,0,0,0,0,0,0,0,0,0,0,0,0,0,0,0,0,0,0,0,0,0,0,0,0,0,0,0,0,0,0,0,0,0,0,-4.169,-4.1691,0,-4.1714,-4.1714,-4.1715,-4.165,-4.1648,-4.1646,-4.1644,-4.1665,-4.1668,-4.167,0,0,0,0,0,0,0,0,0,0,0,0,0,-4.1585,-4.1588,-4.169,-4.1691,-4.1691,-4.1714,-4.1714,-4.1715,-4.165,-4.1648,-4.1646,-4.1643,-4.1665,-4.1668,-4.167,0,0,0,0,0,0,0,0,0,0,0,0,0,-4.1622,-4.1588,-4.169,-4.1662,-4.1659,-4.1714,-4.1714,-4.1715,-4.1651,-4.1648,-4.1645,-4.1642,-4.1664,-4.1667,-4.1671,-4.1753,0,0,-4.1682,-4.1684,0,0,0,0,0,0,0,0,-4.162,-4.1626,-4.1666,-4.1664,-4.1661,-4.1676,-4.1685,-4.1728,-4.1652,-4.1654,-4.1644,-4.1641,-4.1671,-4.1674,-4.1685,-4.1754,-4.1755,-4.1682,-4.1685,-4.1686,-4.1687,0,0,0,0,0,0,0,-4.1618,-4.1625,-4.17,-4.1666,-4.1664,-4.1646,-4.1648,-4.1693,-4.1679,-4.1654,-4.1649,-4.1653,-4.1669,-4.1682,-4.1685,-4.1756,-4.1682,-4.1685,-4.1688,-4.1689,-4.1893,-4.1896,0,0,0,0,0,0,-4.1619,-4.1623,-4.1699,-4.17,-4.1633,-4.1651,-4.1653,-4.1674,-4.1678,-4.1676,-4.1655,-4.165,-4.1677,-4.1681,-4.1686,-4.1782,-4.1686,-4.1689,-4.1692,-4.1889,-4.1893,-4.1897,0,0,0,0,0,0,-4.1617,-4.1627,-4.1698,-4.166,-4.1668,-4.1656,-4.168,-4.1676,-4.1689,-4.168,-4.1677,-4.1671,-4.1675,-4.168,-4.1737,-4.1782,-4.1691,-4.1694,-4.1886,-4.1891,-4.1895,-4.1976,0,0,0,0,0,0,-4.1615,-4.1626,-4.1659,-4.1662,-4.1671,-4.175,-4.1683,-4.1679,-4.1695,-4.1688,-4.1693,-4.1691,-4.1673,-4.1732,-4.1741,-4.1785,-4.1697,-4.1881,-4.1888,-4.1893,-4.1969,-4.1983,-4.1994,0,0,0,0,0,-4.1611,-4.168,-4.1661,-4.167,-4.1711,-4.1753,-4.1758,-4.1736,-4.1699,-4.1731,-4.1725,-4.1691,-4.1775,-4.1738,-4.1747,-4.1794,-4.1879,-4.1886,-4.1893,-4.1963,-4.198,-4.1994,0,0,0,0,0,0,-4.1681,-4.168,-4.1658,-4.173,-4.1743,-4.1742,-4.1781,-4.1755,-4.1777,-4.1769,-4.174,-4.1742,-4.1803,-4.1804,-4.1763,-4.1873,-4.182,-4.183,-4.1871,-4.1886,-4.1899,-4.1897,-4.17,0,0,0,0,0,-4.1705,-4.1741,-4.1737,-4.1801,-4.1808,-4.1794,-4.1812,-4.1794,-4.1805,-4.1809,-4.1807,-4.1818,-4.1847,-4.1867,-4.1893,-4.1969,-4.1968,-4.2005,-4.2017,-4.2028,-4.2036,-4.2076,-4.2092,-4.1921,-4.192,-4.192,0,0,-4.1755,-4.1759,-4.1783,-4.1815,-4.1822,-4.1859,-4.1799,-4.184,-4.1866,-4.1815,-4.1868,-4.1868,-4.1878,-4.1944,-4.1973,-4.1947,-4.2084,-4.2037,-4.2046,-4.2048,-4.2085,-4.2101,-4.2116,-4.1925,-4.1925,-4.1924,0,0,-4.1864,-4.1871,-4.1925,-4.1933,-4.1945,-4.1935,-4.1948,-4.1952,-4.195,-4.2003,-4.1965,-4.1995,-4.2046,-4.2055,-4.2066,-4.2178,-4.2147,-4.2187,-4.2253,-4.2292,-4.2305,-4.2317,-4.2357,-4.2371,-4.2195,-4.2195,-4.2196,0,-4.1924,-4.1979,-4.1955,-4.1999,-4.2014,-4.197,-4.2024,-4.2033,-4.2052,-4.2063,-4.2033,-4.2095,-4.2099,-4.2167,-4.2194,-4.2205,-4.2218,-4.2186,-4.2305,-4.2317,-4.2328,-4.2365,-4.238,-4.22,-4.22,-4.2199,-4.2199,0,-4.2052,-4.209,-4.2132,-4.2153,-4.2172,-4.2221,-4.2203,-4.2226,-4.2206,-4.2199,-4.2253,-4.2256,-4.2282,-4.2296,-4.2277,-4.2361,-4.2344,-4.2311,-4.2257,-4.2349,-4.2384,-4.2398,-4.2207,-4.2205,-4.2204,-4.2203,0,0,-4.2206,-4.2213,-4.2229,-4.2238,-4.2248,-4.2276,-4.2322,-4.2348,-4.2367,-4.2382,-4.2419,-4.2463,-4.2432,-4.2444,-4.2425,-4.246,-4.2547,-4.2421,-4.2421,-4.2444,-4.2639,-4.2665,-4.2682,-4.2527,-4.253,-4.2532,-4.2638,0,-4.2314,-4.2394,-4.2373,-4.2452,-4.2487,-4.2445,-4.2485,-4.2495,-4.2489,-4.2516,-4.2509,-4.2541,-4.2497,-4.2504,-4.2536,-4.253,-4.2586,-4.2522,-4.2561,-4.2562,-4.2559,-4.27,-4.2727,-4.2827,-4.2652,-4.2654,-4.2656,0,-4.245,-4.2471,-4.2554,-4.2557,-4.2571,-4.2607,-4.2629,-4.2656,-4.2666,-4.2659,-4.2673,-4.2648,-4.2691,-4.2638,-4.2698,-4.2655,-4.2669,-4.2668,-4.2671,-4.2674,-4.2615,-4.2706,-4.2859,-4.2874,-4.2677,-4.2675,-4.2673,0,-4.2554,-4.2603,-4.2658,-4.2667,-4.2673,-4.2699,-4.2702,-4.2709,-4.2726,-4.2744,-4.2755,-4.2778,-4.2791,-4.2809,-4.279,-4.2753,-4.2852,-4.2797,-4.2847,-4.2848,-4.287,-4.2869,-4.3027,-4.288,-4.288,-4.288,-4.2879,0,-4.2676,-4.2728,-4.2705,-4.2739,-4.2796,-4.2772,-4.2828,-4.2826,-4.2833,-4.2865,-4.283,-4.2861,-4.2834,-4.2862,-4.2847,-4.2899,-4.2904,-4.29,-4.2895,-4.2903,-4.2904,-4.2912,-4.2904,-4.2883,-4.2883,-4.2882,-4.2881,0,-4.2802,-4.2789,-4.2847,-4.2847,-4.2849,-4.289,-4.289,-4.2921,-4.2913,-4.2954,-4.2962,-4.2949,-4.298,-4.2963,-4.2995,-4.2985,-4.3051,-4.3037,-4.3049,-4.3045,-4.3096,-4.3091,-4.3265,-4.3286,-4.3126,-4.3127,-4.3128,0,-4.2881,-4.292,-4.2925,-4.2945,-4.2951,-4.2983,-4.3,-4.2977,-4.2995,-4.3009,-4.3038,-4.3067,-4.3088,-4.314,-4.3132,-4.3156,-4.3143,-4.3202,-4.3146,-4.3152,-4.3143,-4.3141,-4.3145,-4.3213,-4.3215,-4.3216,-4.3218,0,-4.3022,-4.3014,-4.304,-4.3064,-4.3086,-4.3103,-4.3118,-4.3136,-4.3113,-4.3135,-4.3167,-4.3184,-4.3217,-4.3245,-4.3266,-4.3268,-4.3239,-4.3235,-4.3248,-4.3256,-4.3261,-4.3259,-4.3079,-4.3231,-4.323,-4.3229,-4.3228,-4.3228,-4.3127,-4.3159,-4.3168,-4.3198,-4.3207,-4.3221,-4.3251,-4.3246,-4.3272,-4.3298,-4.3282,-4.332,-4.3327,-4.3352,-4.3358,-4.3386,-4.3362,-4.3381,-4.3386,-4.3391,-4.3397,-4.3257,-4.339,-4.3389,-4.3389,-4.3388,-4.3388,0,-4.3266,-4.3269,-4.3298,-4.3319,-4.3343,-4.3314,-4.3329,-4.335,-4.3384,-4.3394,-4.3416,-4.3452,-4.3479,-4.3474,-4.3498,-4.3522,-4.3509,-4.3529,-4.3527,-4.3528,-4.3417,-4.3404,-4.3539,-4.3539,-4.3539,-4.3539,-4.3539,-4.3539,-4.3341,-4.3395,-4.3387,-4.3444,-4.3447,-4.3484,-4.3495,-4.3507,-4.3515,-4.3558,-4.358,-4.3577,-4.358,-4.3605,-4.3628,-4.3625,-4.3636,-4.3661,-4.3654,-4.3551,-4.3536,-4.3521,-4.3509,-4.3663,-4.3664,-4.3762,-4.3762,-4.3763]}]]